Retour au catalogue

CZ-6A DEB

ActifPO
NORAD 61306·DEBRIS·🇨🇳 China

Lancé Aug 6, 2024 depuis Taiyuan Satellite Launch Center

Loading…

Prochains Passages (prochaines 24 heures)

TLE

FraisSource: Space-Track

Époque: Sep 14, 2026, 05:48 UTC

1 61306U 24140TT  26257.24171836  .00003596  00000-0  10083-2 0  9998
2 61306  88.1138 179.3324 0028623  43.0881 317.2556 14.45607430107563

Suivez CZ-6A DEB en temps réel avec AllMySat

Download on the App Store